Location: Chandolas
(44.4033°N, 4.2533°E)
Time: 08:10:49
(UTC+00:00)

NOAA 6 - Pass Details

Date: 15 November 2019
Orbit: 771 x 788 km, 98.6° (Epoch: 09 December)

Event Time Altitude Azimuth Distance (km) Brightness Sun altitude
Rises 05:13:20 0° 16° (NNE) 3,266 7.3 -15.2°
Reaches altitude 10° 05:15:41 10° 18° (NNE) 2,332 6.6 -14.8°
Maximum altitude 05:20:49 70° 103° (ESE) 823 4.4 -13.9°
Drops below altitude 10° 05:25:53 10° 187° (S) 2,309 6.6 -13.0°
Sets 05:28:11 0° 189° (S) 3,231 7.3 -12.6°
